Time,TemperatureF,DewpointF,PressureIn,WindDirection,WindDirectionDegrees,WindSpeedMPH,WindSpeedGustMPH,Humidity,HourlyPrecipIn,Conditions,Clouds,dailyrainin,SolarRadiationWatts/m^2,SoftwareType,DateUTC
2013-01-17 00:12:00,26.0,17.0,-100.00,NNW,340,6.0,19.0,69,0.00,,,0.00,1.000000,,2013-01-17 05:12:00,
2013-01-17 00:22:00,26.0,17.0,-100.00,NNW,340,6.0,19.0,69,0.00,,,0.00,1.000000,,2013-01-17 05:22:00,
2013-01-17 00:33:00,26.0,17.0,-100.00,NNW,340,6.0,19.0,69,0.00,,,0.00,1.000000,,2013-01-17 05:33:00,
2013-01-17 00:42:00,26.0,17.0,-100.00,NNW,340,6.0,19.0,69,0.00,,,0.00,1.000000,,2013-01-17 05:42:00,
2013-01-17 01:12:00,24.0,13.0,-100.00,NNW,334,7.0,16.0,63,0.00,,,0.00,0.000000,,2013-01-17 06:12:00,
2013-01-17 01:22:00,24.0,13.0,-100.00,NNW,334,7.0,16.0,63,0.00,,,0.00,0.000000,,2013-01-17 06:22:00,
2013-01-17 01:33:00,24.0,13.0,-100.00,NNW,334,7.0,16.0,63,0.00,,,0.00,0.000000,,2013-01-17 06:33:00,
2013-01-17 01:42:00,24.0,13.0,-100.00,NNW,334,7.0,16.0,63,0.00,,,0.00,0.000000,,2013-01-17 06:42:00,
2013-01-17 02:12:00,22.0,11.0,-100.00,NNW,347,9.0,19.0,62,0.00,,,0.00,1.000000,,2013-01-17 07:12:00,
2013-01-17 02:22:00,22.0,11.0,-100.00,NNW,347,9.0,19.0,62,0.00,,,0.00,1.000000,,2013-01-17 07:22:00,
2013-01-17 02:33:00,22.0,11.0,-100.00,NNW,347,9.0,19.0,62,0.00,,,0.00,1.000000,,2013-01-17 07:33:00,
2013-01-17 02:42:00,22.0,11.0,-100.00,NNW,347,9.0,19.0,62,0.00,,,0.00,1.000000,,2013-01-17 07:42:00,
2013-01-17 03:12:00,21.0,9.0,-100.00,North,350,6.0,16.0,59,0.00,,,0.00,1.000000,,2013-01-17 08:12:00,
2013-01-17 03:22:00,21.0,9.0,-100.00,North,350,6.0,16.0,59,0.00,,,0.00,1.000000,,2013-01-17 08:22:00,
2013-01-17 03:32:00,21.0,9.0,-100.00,North,350,6.0,16.0,59,0.00,,,0.00,1.000000,,2013-01-17 08:32:00,
2013-01-17 03:43:00,21.0,9.0,-100.00,North,350,6.0,16.0,59,0.00,,,0.00,1.000000,,2013-01-17 08:43:00,
2013-01-17 04:12:00,19.0,8.0,-100.00,North,4,6.0,15.0,61,0.00,,,0.00,1.000000,,2013-01-17 09:12:00,
2013-01-17 04:22:00,19.0,8.0,-100.00,North,4,6.0,15.0,61,0.00,,,0.00,1.000000,,2013-01-17 09:22:00,
2013-01-17 04:33:00,19.0,8.0,-100.00,North,4,6.0,15.0,61,0.00,,,0.00,1.000000,,2013-01-17 09:33:00,
2013-01-17 04:42:00,19.0,8.0,-100.00,North,4,6.0,15.0,61,0.00,,,0.00,1.000000,,2013-01-17 09:42:00,
2013-01-17 05:12:00,18.0,8.0,-100.00,North,353,5.0,11.0,63,0.00,,,0.00,1.000000,,2013-01-17 10:12:00,
2013-01-17 05:22:00,18.0,8.0,-100.00,North,353,5.0,11.0,63,0.00,,,0.00,1.000000,,2013-01-17 10:22:00,
2013-01-17 05:33:00,18.0,8.0,-100.00,North,353,5.0,11.0,63,0.00,,,0.00,1.000000,,2013-01-17 10:33:00,
2013-01-17 05:42:00,18.0,8.0,-100.00,North,353,5.0,11.0,63,0.00,,,0.00,1.000000,,2013-01-17 10:42:00,
2013-01-17 06:12:00,17.0,7.0,-100.00,North,8,6.0,13.0,65,0.00,,,0.00,1.000000,,2013-01-17 11:12:00,
2013-01-17 06:23:00,17.0,7.0,-100.00,North,8,6.0,13.0,65,0.00,,,0.00,1.000000,,2013-01-17 11:23:00,
2013-01-17 06:33:00,17.0,7.0,-100.00,North,8,6.0,13.0,65,0.00,,,0.00,1.000000,,2013-01-17 11:33:00,
2013-01-17 06:43:00,17.0,7.0,-100.00,North,8,6.0,13.0,65,0.00,,,0.00,1.000000,,2013-01-17 11:43:00,
2013-01-17 07:12:00,16.0,6.0,-100.00,North,359,6.0,10.0,64,0.00,,,0.00,1.000000,,2013-01-17 12:12:00,
2013-01-17 07:23:00,16.0,6.0,-100.00,North,359,6.0,10.0,64,0.00,,,0.00,1.000000,,2013-01-17 12:23:00,
2013-01-17 07:33:00,16.0,6.0,-100.00,North,359,6.0,10.0,64,0.00,,,0.00,1.000000,,2013-01-17 12:33:00,
2013-01-17 07:43:00,16.0,6.0,-100.00,North,359,6.0,10.0,64,0.00,,,0.00,1.000000,,2013-01-17 12:43:00,
2013-01-17 08:12:00,15.0,3.0,-100.00,North,356,5.0,9.0,58,0.00,,,0.00,0.000000,,2013-01-17 13:12:00,
2013-01-17 08:23:00,15.0,3.0,-100.00,North,356,5.0,9.0,58,0.00,,,0.00,0.000000,,2013-01-17 13:23:00,
2013-01-17 08:33:00,15.0,3.0,-100.00,North,356,5.0,9.0,58,0.00,,,0.00,0.000000,,2013-01-17 13:33:00,
2013-01-17 08:43:00,15.0,3.0,-100.00,North,356,5.0,9.0,58,0.00,,,0.00,0.000000,,2013-01-17 13:43:00,
2013-01-17 09:13:00,15.0,3.0,-100.00,WNW,298,5.0,9.0,57,0.00,,,0.00,5.000000,,2013-01-17 14:13:00,
2013-01-17 09:23:00,15.0,3.0,-100.00,WNW,298,5.0,9.0,57,0.00,,,0.00,5.000000,,2013-01-17 14:23:00,
2013-01-17 09:33:00,15.0,3.0,-100.00,WNW,298,5.0,9.0,57,0.00,,,0.00,5.000000,,2013-01-17 14:33:00,
2013-01-17 09:43:00,15.0,3.0,-100.00,WNW,298,5.0,9.0,57,0.00,,,0.00,5.000000,,2013-01-17 14:43:00,
2013-01-17 10:13:00,15.0,3.0,-100.00,NW,315,4.0,7.0,58,0.00,,,0.00,33.000000,,2013-01-17 15:13:00,
2013-01-17 10:23:00,15.0,3.0,-100.00,NW,315,4.0,7.0,58,0.00,,,0.00,33.000000,,2013-01-17 15:23:00,
2013-01-17 10:33:00,15.0,3.0,-100.00,NW,315,4.0,7.0,58,0.00,,,0.00,33.000000,,2013-01-17 15:33:00,
2013-01-17 10:43:00,15.0,3.0,-100.00,NW,315,4.0,7.0,58,0.00,,,0.00,33.000000,,2013-01-17 15:43:00,
2013-01-17 11:13:00,15.0,3.0,-100.00,NNW,330,4.0,8.0,57,0.00,,,0.00,81.000000,,2013-01-17 16:13:00,
2013-01-17 11:23:00,15.0,3.0,-100.00,NNW,330,4.0,8.0,57,0.00,,,0.00,81.000000,,2013-01-17 16:23:00,
2013-01-17 11:33:00,15.0,3.0,-100.00,NNW,330,4.0,8.0,57,0.00,,,0.00,81.000000,,2013-01-17 16:33:00,
2013-01-17 11:43:00,15.0,3.0,-100.00,NNW,330,4.0,8.0,57,0.00,,,0.00,81.000000,,2013-01-17 16:43:00,
2013-01-17 12:13:00,17.0,4.0,-100.00,WNW,296,4.0,9.0,56,0.00,,,0.00,158.000000,,2013-01-17 17:13:00,
2013-01-17 12:23:00,17.0,4.0,-100.00,WNW,296,4.0,9.0,56,0.00,,,0.00,158.000000,,2013-01-17 17:23:00,
2013-01-17 12:33:00,17.0,4.0,-100.00,WNW,296,4.0,9.0,56,0.00,,,0.00,158.000000,,2013-01-17 17:33:00,
2013-01-17 12:43:00,17.0,4.0,-100.00,WNW,296,4.0,9.0,56,0.00,,,0.00,158.000000,,2013-01-17 17:43:00,
2013-01-17 13:04:00,18.0,5.0,-100.00,WNW,284,4.0,9.0,56,0.00,,,-99.99,159.000000,,2013-01-17 18:04:00,
2013-01-17 13:13:00,18.0,5.0,-100.00,WNW,284,4.0,9.0,56,0.00,,,-99.99,159.000000,,2013-01-17 18:13:00,
2013-01-17 13:23:00,18.0,5.0,-100.00,WNW,284,4.0,9.0,56,0.00,,,-99.99,159.000000,,2013-01-17 18:23:00,
2013-01-17 13:34:00,18.0,5.0,-100.00,WNW,284,4.0,9.0,56,0.00,,,-99.99,159.000000,,2013-01-17 18:34:00,
2013-01-17 13:44:00,18.0,5.0,-100.00,WNW,284,4.0,9.0,56,0.00,,,-99.99,159.000000,,2013-01-17 18:44:00,
2013-01-17 14:13:00,18.0,7.0,-100.00,West,268,5.0,9.0,61,0.00,,,0.00,146.000000,,2013-01-17 19:13:00,
2013-01-17 14:23:00,18.0,7.0,-100.00,West,268,5.0,9.0,61,0.00,,,0.00,146.000000,,2013-01-17 19:23:00,
2013-01-17 14:33:00,18.0,7.0,-100.00,West,268,5.0,9.0,61,0.00,,,0.00,146.000000,,2013-01-17 19:33:00,
2013-01-17 14:43:00,18.0,7.0,-100.00,West,268,5.0,9.0,61,0.00,,,0.00,146.000000,,2013-01-17 19:43:00,
2013-01-17 15:13:00,18.0,6.0,-100.00,WNW,290,10.0,17.0,58,0.00,,,0.00,151.000000,,2013-01-17 20:13:00,
2013-01-17 15:23:00,18.0,6.0,-100.00,WNW,290,10.0,17.0,58,0.00,,,0.00,151.000000,,2013-01-17 20:23:00,
2013-01-17 15:33:00,18.0,6.0,-100.00,WNW,290,10.0,17.0,58,0.00,,,0.00,151.000000,,2013-01-17 20:33:00,
2013-01-17 15:43:00,18.0,6.0,-100.00,WNW,290,10.0,17.0,58,0.00,,,0.00,151.000000,,2013-01-17 20:43:00,
2013-01-17 16:13:00,17.0,7.0,-100.00,WNW,282,11.0,17.0,64,0.00,,,0.00,107.000000,,2013-01-17 21:13:00,
2013-01-17 16:23:00,17.0,7.0,-100.00,WNW,282,11.0,17.0,64,0.00,,,0.00,107.000000,,2013-01-17 21:23:00,
2013-01-17 16:34:00,17.0,7.0,-100.00,WNW,282,11.0,17.0,64,0.00,,,0.00,107.000000,,2013-01-17 21:34:00,
2013-01-17 16:43:00,17.0,7.0,-100.00,WNW,282,11.0,17.0,64,0.00,,,0.00,107.000000,,2013-01-17 21:43:00,
2013-01-17 17:12:00,15.0,5.0,-100.00,NW,306,10.0,22.0,63,0.00,,,-99.99,49.000000,,2013-01-17 22:12:00,
2013-01-17 17:23:00,15.0,5.0,-100.00,NW,306,10.0,22.0,63,0.00,,,-99.99,49.000000,,2013-01-17 22:23:00,
2013-01-17 17:33:00,15.0,5.0,-100.00,NW,306,10.0,22.0,63,0.00,,,-99.99,49.000000,,2013-01-17 22:33:00,
2013-01-17 17:43:00,15.0,5.0,-100.00,NW,306,10.0,22.0,63,0.00,,,-99.99,49.000000,,2013-01-17 22:43:00,
2013-01-17 18:12:00,14.0,1.0,-100.00,WNW,292,10.0,17.0,55,0.00,,,0.00,11.000000,,2013-01-17 23:12:00,
2013-01-17 18:23:00,14.0,1.0,-100.00,WNW,292,10.0,17.0,55,0.00,,,0.00,11.000000,,2013-01-17 23:23:00,
2013-01-17 18:33:00,14.0,1.0,-100.00,WNW,292,10.0,17.0,55,0.00,,,0.00,11.000000,,2013-01-17 23:33:00,
2013-01-17 18:43:00,14.0,1.0,-100.00,WNW,292,10.0,17.0,55,0.00,,,0.00,11.000000,,2013-01-17 23:43:00,
2013-01-17 19:12:00,12.0,1.0,-100.00,WNW,300,8.0,13.0,60,0.00,,,0.00,1.000000,,2013-01-18 00:12:00,
2013-01-17 19:23:00,12.0,1.0,-100.00,WNW,300,8.0,13.0,60,0.00,,,0.00,1.000000,,2013-01-18 00:23:00,
2013-01-17 19:33:00,12.0,1.0,-100.00,WNW,300,8.0,13.0,60,0.00,,,0.00,1.000000,,2013-01-18 00:33:00,
2013-01-17 19:43:00,12.0,1.0,-100.00,WNW,300,8.0,13.0,60,0.00,,,0.00,1.000000,,2013-01-18 00:43:00,
2013-01-17 20:13:00,12.0,3.0,-100.00,WNW,301,6.0,12.0,67,0.00,,,0.00,0.000000,,2013-01-18 01:13:00,
2013-01-17 20:23:00,12.0,3.0,-100.00,WNW,301,6.0,12.0,67,0.00,,,0.00,0.000000,,2013-01-18 01:23:00,
2013-01-17 20:33:00,12.0,3.0,-100.00,WNW,301,6.0,12.0,67,0.00,,,0.00,0.000000,,2013-01-18 01:33:00,
2013-01-17 20:43:00,12.0,3.0,-100.00,WNW,301,6.0,12.0,67,0.00,,,0.00,0.000000,,2013-01-18 01:43:00,
2013-01-17 21:12:00,10.0,3.0,-100.00,West,276,4.0,9.0,74,0.00,,,0.00,0.000000,,2013-01-18 02:12:00,
2013-01-17 21:23:00,10.0,3.0,-100.00,West,276,4.0,9.0,74,0.00,,,0.00,0.000000,,2013-01-18 02:23:00,
2013-01-17 21:33:00,10.0,3.0,-100.00,West,276,4.0,9.0,74,0.00,,,0.00,0.000000,,2013-01-18 02:33:00,
2013-01-17 21:43:00,10.0,3.0,-100.00,West,276,4.0,9.0,74,0.00,,,0.00,0.000000,,2013-01-18 02:43:00,
2013-01-17 22:13:00,8.0,3.0,-100.00,West,265,4.0,6.0,79,0.00,,,0.00,0.000000,,2013-01-18 03:13:00,
2013-01-17 22:23:00,8.0,3.0,-100.00,West,265,4.0,6.0,79,0.00,,,0.00,0.000000,,2013-01-18 03:23:00,
2013-01-17 22:33:00,8.0,3.0,-100.00,West,265,4.0,6.0,79,0.00,,,0.00,0.000000,,2013-01-18 03:33:00,
2013-01-17 22:43:00,8.0,3.0,-100.00,West,265,4.0,6.0,79,0.00,,,0.00,0.000000,,2013-01-18 03:43:00,
2013-01-17 23:12:00,7.0,2.0,-100.00,WSW,256,3.0,7.0,79,0.00,,,0.00,0.000000,,2013-01-18 04:12:00,
2013-01-17 23:22:00,7.0,2.0,-100.00,WSW,256,3.0,7.0,79,0.00,,,0.00,0.000000,,2013-01-18 04:22:00,
2013-01-17 23:33:00,7.0,2.0,-100.00,WSW,256,3.0,7.0,79,0.00,,,0.00,0.000000,,2013-01-18 04:33:00,
2013-01-17 23:42:00,7.0,2.0,-100.00,WSW,256,3.0,7.0,79,0.00,,,0.00,0.000000,,2013-01-18 04:42:00,